Regional Weather Roundup
Issued by NWS

Home | Current Version | Previous Version | Graphics & Text | Print | Product List | Glossary On
Versions: 1 2 3 4 5 6 7 8 9 10 11 12 13 14 15 16 17 18 19 20 21 22 23 24 25 26 27 28 29 30 31 32 33 34 35 36 37 38 39 40 41 42 43 44 45 46 47 48 49 50
000
ASUS43 KIND 180200
RWRIN

WEATHER ROUNDUP FOR INDIANA
NATIONAL WEATHER SERVICE INDIANAPOLIS IN
1000 PM EDT THU AUG 17 2017

NOTE: "FAIR" INDICATES FEW OR NO CLOUDS BELOW 12,000 FEET WITH NO
SIGNIFICANT WEATHER AND/OR OBSTRUCTIONS TO VISIBILITY.

* - STATION DOES NOT REPORT WEATHER SUCH AS PRECIPITATION OR FOG.

+ - STATION NOT QUALITY CONTROLLED BY THE NATIONAL WEATHER SERVICE.
    USE DATA WITH CAUTION...ESPECIALLY DEWPOINT AND RELATIVE
    HUMIDITY OBSERVATIONS.

INZ001>003-010>013-019-020-180300-
NORTHWEST INDIANA

CITY           SKY/WX    TMP DP  RH WIND       PRES   REMARKS
GARY /AIRPORT/   N/A     79  63  57 SW14      29.77S
MICHIGAN CITY+ CLOUDY    75  64  69 SW9       29.78R
MONTICELLO +   PTCLDY    74  68  82 SW5       29.81R
RENSSELAER +   CLEAR     72  63  73 SW8       29.81S

$$

LMZ046-743>745-180300-
SOUTHERN LAKE MICHIGAN

STATION/POSITION TIME  TEMP    WIND        PRES    WAVE
                       AIR SEA DIR/SP/G            HT
                 (UTC) (F)     (DEG/KT/KT) (MB)    (FT)
BURNS HARBOR     0113   78     210/ 13/ 19 1008.5R
MICHIGAN CITY    0130   77     200/ 14/ 16   N/A
5NW MICH CITY    0150   77 74  230/ 16/ 19   N/A     3

$$

INZ004-005-014>016-021>024-180300-
NORTH CENTRAL INDIANA

CITY           SKY/WX    TMP DP  RH WIND       PRES   REMARKS
GOSHEN         PTCLDY    72  65  78 SW8       29.79R
PERU/GRISSOM   PTCLDY    71  71  98 SW7       29.82R
SOUTH BEND     CLOUDY    76  67  73 SW13      29.78R
WARSAW +       PTCLDY    73  66  78 SW5       29.81R

$$

INZ006>009-017-018-025>027-180300-
NORTHEAST INDIANA

CITY           SKY/WX    TMP DP  RH WIND       PRES   REMARKS
FORT WAYNE     PTCLDY    72  67  84 SW7       29.82R
KENDALLVILLE + CLOUDY    73  66  80 SW12      29.81R

$$

INZ028-029-035-036-043>045-051>053-180300-
WEST CENTRAL INDIANA

CITY           SKY/WX    TMP DP  RH WIND       PRES   REMARKS
LAFAYETTE      PTCLDY    72  69  90 W5        29.82R
TERRE HAUTE    PTCLDY    77  70  79 SW6       29.85R

$$

INZ030>032-037>040-046>048-054>057-064-065-180300-
CENTRAL INDIANA

CITY           SKY/WX    TMP DP  RH WIND       PRES   REMARKS
COLUMBUS       CLEAR     77  68  73 SW7       29.86R
GREENWOOD *+   CLEAR     75  67  76 SW3       29.86R
INDIANAPOLIS   PTCLDY    77  68  73 SW9       29.84S
-EAGLE CREEK   CLEAR     78  68  71 MISG      29.84R
KOKOMO +       CLEAR     74  68  81 W8        29.84R
MT COMFORT *+  CLEAR     75  68  78 SW6       29.86R
SHELBYVILLE    CLEAR     75  67  76 SW7       29.85R

$$

INZ033-034-041-042-049-050-058-059-180300-
EAST CENTRAL INDIANA

CITY           SKY/WX    TMP DP  RH WIND       PRES   REMARKS
MUNCIE         CLEAR     78  69  73 SW6       29.84S
RICHMOND +     CLOUDY    70  68  94 SW7       29.89R

$$

INZ060-061-067>069-081>083-085>088-180300-
SOUTHWEST INDIANA

CITY           SKY/WX    TMP DP  RH WIND       PRES   REMARKS
EVANSVILLE     CLEAR     80  71  74 SW8       29.88R
HUNTINGBURG +  CLOUDY    78  75  90 SW6       29.88R

$$

INZ062-063-066-070>080-084-089>092-180300-
SOUTH CENTRAL AND SOUTHEAST INDIANA

CITY           SKY/WX    TMP DP  RH WIND       PRES   REMARKS
BLOOMINGTON    PTCLDY    74  67  78 W3        29.87R
MADISON *+     MOCLDY    73  72  94 SW5       29.90S
SEYMOUR +      CLOUDY    79  72  78 SW9       29.87R

$$





USA.gov is the U.S. government's official web portal to all federal, state and local government web resources and services.